Location: Lecco
(45.8566°N, 9.3977°E)
Time: 12:24:59
(UTC+02:00)

Transit 2A Rocket - Visible Passes

Search period start: 07 August 2020 00:00
Search period end: 17 August 2020 00:00
Orbit: 584 x 919 km, 66.7° (Epoch: 06 August)

Date Brightness Start Highest point End Pass type
(mag) Time Alt. Az. Time Alt. Az. Time Alt. Az.
09 Aug 7.6 05:18:04 10° SSE 05:22:15 21° ESE 05:26:37 10° ENE visible
10 Aug 7.8 04:37:52 10° ESE 04:40:08 12° E 04:42:27 10° ENE visible
11 Aug 6.3 05:33:44 10° S 05:39:12 46° ESE 05:45:00 10° NE visible
12 Aug 7.0 04:52:01 10° SSE 04:56:53 29° ESE 05:02:00 10° NE visible
13 Aug 7.5 04:10:56 10° SE 04:14:41 18° ESE 04:18:33 10° ENE visible
14 Aug 5.7 05:08:16 10° SSW 05:13:58 63° ESE 05:20:02 10° NE visible
15 Aug 6.4 04:27:00 14° S 04:31:34 39° ESE 04:37:11 10° NE visible
16 Aug 7.0 03:45:58 15° SSE 03:49:16 25° ESE 03:54:04 10° NE visible
16 Aug 5.5 05:25:53 12° SW 05:31:26 66° NW 05:37:34 10° NNE visible
